     2              OBSERVATION DATA    GPS                 RINEX VERSION / TYPE
TRRINEXO-V2.7.0-LH UCSD 05-APR-1996                         PGM / RUN BY / DATE
                                                            COMMENT
Original Marker Name: DHLG                                  COMMENT
Campaign Name: DHL Surveys 94-96                            COMMENT
4-Character Station Name: DHLG                              COMMENT
6-Character Antenna Code: TRMSST                            COMMENT
Vertical Measurement Point: BPA                             COMMENT
Vertical Offset to Rinex Ref. Point: 0.0000                 COMMENT
Radial Measurement Point: RRP                               COMMENT
Radial Offset to Rinex Ref. Point: 0.0000                   COMMENT
Antenna Height from Field Measurement: 0.1240 m             COMMENT
Original XYZ: -2319073.0222 -4799843.5817 3490113.9608      COMMENT
New XYZ position is based on association with SCEC monument COMMENT
E1D0J1O4+0021. Position of that monument is believed to be  COMMENT
valid to within 1 m horizontally; vertical accuracy         COMMENT
should be no worse than 3-times this value.                 COMMENT
                                                            COMMENT
Revised Rinex header created by UCSD GPS archive for        COMMENT
GSAC on 07-Jun-2001 (2001:158) 17:12:44 GMT                 COMMENT
For assistance contact dagnew@ucsd.edu or hjohnson@ucsd.edu COMMENT
                                                            COMMENT
DHL SOUTH QUIN.                                             MARKER NAME
Steve Bralla SCRIPPS INSTITUTION OF OCEANOGRAPHY            OBSERVER / AGENCY
494 TRIMBLE 4000 SST 4.81 / 4.20                            REC # / TYPE / VERS
26 TR 4000SST L1/L2 GEO                                     ANT # / TYPE
 -2319099.1829 -4799846.5295  3490090.4463                  APPROX POSITION XYZ
        0.1240        0.0000        0.0000                  ANTENNA: DELTA H/E/N
     1     2     0                                          WAVELENGTH FACT L1/2
     3    C1    L1    L2                                    # / TYPES OF OBSERV
    30                                                      INTERVAL
  1996     4     5     0     0   30.000000                  TIME OF FIRST OBS
  1996     4     5     0    12   30.000000                  TIME OF LAST OBS
     0                                                      # OF SATELLITES
                                                            END OF HEADER
 96  4  5  0  0 30.0000000  0  7 05 20 09 04 24 07 16
  20910963.031          -0.28717
  22916102.805          -0.68916
  22428798.680          -0.58016
  21944204.516          -0.60017
  20487963.211          -0.23617
  24116796.055          -0.03414
  23790782.547          -0.79414
 96  4  5  0  1  0.0000000  0  7 05 20 09 04 24 07 16
  20880071.930     -162337.830 7        -0.04813
  22877462.734     -203046.869 6        -0.05511
  22421794.820      -36795.364 6        -0.40312
  21938012.453      -32542.999 7
  20469530.445      -96874.274 7        -0.26313
  24108692.383      -42613.162 4
  23751684.852     -205451.449 5
 96  4  5  0  1 30.0000000  0  7 05 20 09 04 24 07 16
  20849250.641     -324297.752 7   -126202.584 3
  22838871.859     -405850.656 6   -158028.959 1
  22414857.922      -73254.204 6    -28409.921 2
  21931889.133      -64716.405 7        -0.46413
  20451192.984     -193228.947 7    -75081.812 3
  24100598.109      -85140.969 4        -0.21311
  23712608.531     -410812.386 5        -0.19011
 96  4  5  0  2  0.0000000  0  8 05 20 09 04 24 07 16 06
  20818506.664     -485867.571 7   -252101.146 3
  22800325.125     -608402.643 6   -315861.651 1
  22407984.719     -109384.602 6    -56563.507 2
  21925833.516      -96533.299 7    -24792.858 3
  20432956.344     -289062.261 7   -149757.113 3
  24092522.703     -127586.475 5    -33074.676 1
  23673545.242     -616082.224 5   -159950.633 1
  24630564.688     -179947.301 3
 96  4  5  0  2 29.9990000  0  8 05 20 09 04 24 07 16 06
  20787837.917     -647031.532 7   -377683.451 3
  22761829.542     -810706.175 6   -473500.745 1
  22401171.339     -145187.098 6    -84461.585 2
  21919841.097     -128030.127 7    -49335.855 3
  20414817.472     -384381.845 7   -224032.106 3
  24084459.597     -169956.126 5    -66090.025 1
  23634501.370     -821258.848 5   -319828.466 1
  24596345.104     -359804.467 3        -0.28111
 96  4  5  0  2 59.9990000  0  8 05 20 09 04 24 07 16 06
  20757246.526     -807787.652 7   -502947.953 3
  22723374.956    -1012795.716 6   -630973.082 1
  22394416.425     -180670.965 6   -112111.393 2
  21913902.003     -159240.705 7    -73655.792 3
  20396775.237     -479197.279 7   -297914.255 3
  24076406.761     -212259.949 5    -99054.094 1
  23595474.690    -1026345.003 5   -479635.774 1
  24562129.698     -539580.886 3   -140085.743 1
 96  4  5  0  3 29.9990000  0  8 05 20 09 04 24 07 16 06
  20726735.347     -968120.133 7   -627882.350 3
  22684954.972    -1214682.453 6   -788287.386 1
  22387724.261     -215847.357 6   -139521.604 1
  21908012.370     -190188.133 7    -97770.680 3
  20378828.792     -573511.435 7   -371405.798 3
  24068368.597     -254495.035 5   -131964.580 1
  23556466.105    -1231339.094 5   -639371.351 1
  24527939.292     -719268.865 4   -280102.295 1
 96  4  5  0  3 59.9990000  0  8 05 20 09 04 24 07 16 06
  20696308.659    -1128016.809 7   -752477.160 3
  22646575.315    -1416369.558 6   -945446.148 1
  22381096.761     -250687.098 6   -166669.489 2
  21902172.222     -220876.790 7   -121683.929 3
  20360977.769     -667312.903 7   -444497.850 3
  24060349.370     -296655.249 5   -164816.697 1
  23517475.487    -1436229.607 5   -799026.232 1
  24493766.948     -898857.572 4   -420041.476 1
 96  4  5  0  4 29.9990000  0  8 05 20 09 04 24 07 16 06
  20665960.229    -1287499.705 7   -876749.543 4
  22608228.847    -1617884.531 6  -1102470.790 1
  22374527.565     -285189.157 6   -193554.240 2
  21896381.847     -251314.347 7   -145401.520 2
  20343220.284     -760632.957 7   -517214.769 3
  24052338.401     -338750.209 5   -197618.014 1
  23478502.589    -1641038.614 5   -958617.591 1
  24459605.558    -1078378.091 4   -559927.530 1
 96  4  5  0  4 59.9990000  0  8 05 20 09 04 24 07 16 06
  20635691.456    -1446560.146 7  -1000692.740 3
  22569918.269    -1819211.732 6  -1259349.085 1
  22368032.183     -319331.521 6   -220158.708 2
  21890641.737     -281471.848 7   -168900.882 3
  20325556.276     -853460.359 7   -589547.803 3
  24044343.300     -380757.681 5   -230351.138 1
  23439545.065    -1845753.679 5  -1118135.736 1
  24425452.058    -1257831.645 4   -699761.426 1
 96  4  5  0  5 29.9990000  0  8 05 20 09 04 24 07 16 06
  20605503.222    -1605199.798 7  -1124308.050 3
  22531639.894    -2020357.112 6  -1416085.720 1
  22361605.034     -353105.770 6   -246476.349 2
  21884955.315     -311350.224 7   -192182.746 3
  20307985.019     -945801.482 7   -661501.926 3
  24036366.972     -422674.793 5   -263013.864 1
  23400608.065    -2050376.310 5  -1277581.870 1
  24391315.456    -1437229.636 4   -839552.017 1
 96  4  5  0  5 59.9990000  0  8 05 20 09 04 24 07 16 06
  20575394.081    -1763428.484 7  -1247603.125 4
  22493397.628    -2221317.535 6  -1572678.239 1
  22355243.831     -386531.633 6   -272522.501 1
  21879324.511     -340941.564 7   -215240.942 3
  20290501.542    -1037674.202 7   -733091.060 3
  24028406.190     -464517.616 5   -295618.703 1
  23361687.120    -2254903.416 5  -1436953.562 1
  24357181.737    -1616599.769 4   -979320.868 1
 96  4  5  0  6 29.9990000  0  8 05 20 09 04 24 07 16 06
  20545365.651    -1921227.146 7  -1370563.113 4
  22455197.034    -2422069.312 6  -1729108.176 1
  22348947.136     -419632.377 6   -298315.321 1
  21873753.792     -370225.260 7   -238059.415 3
  20273111.972    -1129057.420 7   -804298.750 3
  24020460.206     -506277.211 5   -328158.676 1
  23322787.573    -2459318.505 5  -1596237.982 1
  24323051.128    -1795948.838 4  -1119073.321 1
 96  4  5  0  6 59.9990000  0  8 05 20 09 04 24 07 16 06
  20515424.558    -2078571.949 7  -1493169.449 4
  22417043.136    -2622576.218 6  -1885347.291 1
  22342707.284     -452411.345 6   -323857.413 2
  21868239.253     -399197.780 7   -260635.419 2
  20255820.823    -1219914.684 7   -875096.607 3
  24012528.667     -547948.623 5   -360629.946 1
  23283917.714    -2663589.063 5  -1755409.763 1
  24288931.058    -1975249.831 4  -1258788.306 1
 96  4  5  0  7 29.9990000  0  8 05 20 09 04 24 07 16 06
  20485565.550    -2235480.366 7  -1615435.746 4
  22378931.565    -2822838.081 6  -2041395.470 1
  22336525.487     -484899.063 6   -349172.554 1
  21862784.464     -427867.939 7   -282975.811 2
  20238630.589    -1310254.487 7   -945491.260 3
  24004607.909     -589558.316 5   -393053.144 1
  23245070.151    -2867731.797 5  -1914481.928 1
  24254820.839    -2154505.288 4  -1398467.820 1
 96  4  5  0  7 59.9990000  0  8 05 20 09 04 24 07 16 06
  20455786.136    -2391971.111 7  -1737376.584 4
  22340870.901    -3022855.555 6  -2197253.226 1
  22330392.144     -517129.223 6   -374287.000 1
  21857383.230     -456246.712 7   -305089.161 3
  20221536.292    -1400088.933 7  -1015492.114 3
  23996699.534     -631131.656 5   -425447.978 1
  23206243.323    -3071761.449 5  -2073465.998 1
  24220722.972    -2333719.228 3  -1538114.963 1
 96  4  5  0  8 29.9990000  0  8 05 20 09 04 24 07 16 06
  20426088.683    -2548033.631 7  -1858983.739 4
  22302857.112    -3222622.393 6  -2352915.676 1
  22324311.511     -549086.550 6   -399188.850 1
  21852037.214     -484342.837 7   -326982.245 3
  20204539.612    -1489404.128 7  -1085088.366 3
  23988797.542     -672665.586 5   -457812.141 1
  23167442.269    -3275675.099 5  -2232359.662 1
  24186627.073    -2512858.394 3  -1677703.870 1
 96  4  5  0  8 59.9990000  0  8 05 20 09 04 24 07 16 06
  20396472.854    -2703665.209 7  -1980255.094 4
  22264889.120    -3422142.132 6  -2508385.576 1
  22318287.792     -580746.261 6   -423858.792 1
  21846743.972     -512146.330 7   -348647.324 2
  20187642.128    -1578205.055 7  -1154283.890 3
  23980904.394     -714149.269 4   -490137.138 1
  23128661.386    -3479458.436 5  -2391151.797 1
  24152560.284    -2691885.396 3  -1817205.374 1
 96  4  5  0  9 29.9980000  0  8 05 20 09 04 24 07 16 06
  20366933.389    -2858890.797 7  -2101210.095 4
  22226965.170    -3621441.729 6  -2663683.942 1
  22312314.607     -612130.050 6   -448313.731 1
  21841506.115     -539683.084 7   -370104.535 2
  20170832.451    -1666534.148 7  -1223111.741 3
  23973013.311     -755594.277 4   -522431.985 1
  23089903.178    -3683127.578 5  -2549854.942 1
  24118510.186    -2870818.552 3  -1956633.731 1
 96  4  5  0  9 59.9980000  0  8 05 20 09 04 24 07 16 06
  20337475.795    -3013699.471 7  -2221840.221 4
  22189078.857    -3820531.404 6  -2818818.733 1
  22306396.232     -643232.387 6   -472549.361 1
  21836313.881     -566967.447 7   -391365.093 2
  20154111.725    -1754395.054 7  -1291574.784 3
  23965141.342     -796983.007 4   -554682.994 1
  23051172.014    -3886669.703 5  -2708459.110 1
  24084481.232    -3049668.443 3  -2095997.219 1
 96  4  5  0 10 29.9980000  0  8 05 20 09 04 24 07 16 06
  20308092.881    -3168096.435 7  -2342149.534 4
  22151234.029    -4019412.459 6  -2973790.969 1
  22300530.654     -674054.284 6   -496566.453 1
  21831168.287     -594009.647 7   -412436.947 2
  20137482.279    -1841794.738 7  -1359678.425 3
  23957276.436     -838305.187 4   -586882.109 1
  23012465.990    -4090079.489 5  -2866960.175 1
  24050458.803    -3228449.553 3  -2235307.098 1
 96  4  5  0 10 59.9980000  0  8 05 20 09 04 24 07 16 06
  20278791.147    -3322088.895 7  -2462143.658 4
  22113425.693    -4218085.253 6  -3128600.919 1
  22294716.818     -704612.651 6   -520378.199 1
  21826067.170     -620821.625 7   -433329.411 2
  20120934.631    -1928745.326 7  -1427432.125 3
  23949427.061     -879552.355 3   -619022.831 1
  22973783.271    -4293360.843 5  -3025361.142 1
  24016443.053    -3407188.256 3  -2374583.952 1
 96  4  5  0 11 29.9980000  0  8 05 20 09 04 24 07 16 06
  20249566.865    -3475658.729 7  -2581808.460 4
  22075665.537    -4416521.883 6  -3283226.842 1
  22288949.568     -734907.506 6   -543984.619 1
  21821009.154     -647401.980 7   -454041.390 2
  20104477.826    -2015231.120 7  -1494823.648 3
  23941597.896     -920708.252 3   -651092.428 1
  22935124.811    -4496503.608 5  -3183654.143 1
  23982438.381    -3585895.042 3  -2513835.940 1
 96  4  5  0 11 59.9980000  0  8 05 20 09 04 24 07 16 06
  20220428.850    -3628784.227 7  -2701127.029 4
  22037950.311    -4614718.252 6  -3437665.557 1
  22283238.287     -764928.202 6   -567377.399 1
  21815997.764     -673727.100 7   -474554.484 2
  20088112.529    -2101227.140 7  -1561833.528 3
  23933777.881     -961763.156 3   -683083.342 1
  22896493.607    -4699506.335 5  -3341838.022 1
  23948439.451    -3764569.315 4  -2653062.567 1
